User: anonymous
Location: Columbia
(38.9520°N, 92.3340°W)
Time: 14:19:40
(UTC-05:00)
Language:

Cosmos 1603 - Orbit

View from above orbital plane
View from above orbital plane
View from above satellite
View from above satellite

Ground track
Ground track

The orbit data is extracted from the following two-line orbital elements,

1 15333U 84106A   14113.81434128  .00000183  00000-0  12097-3 0  9696
2 15333 071.0289 341.0000 0018770 163.8187 268.6620 14.13935793525657
Epoch (UTC): 23 April 2014 19:32:39
Eccentricity: 0.0018770
inclination: 71.0289°
perigee height: 832 km
apogee height: 859 km
right ascension of ascending node: 341.0000°
argument of perigee: 163.8187°
revolutions per day: 14.13935793
mean anomaly at epoch: 268.6620°
orbit number at epoch: 52565

The dashed part of the orbit path shows where the satellite is in the earth's shadow,  

DLR